Voltar ao catálogo

COSMOS 886 DEB *

AtivoLEO
NORAD 9954·DEBRIS·🇷🇺 Russia

Lançado Dec 27, 1976 de Baikonur Cosmodrome

Loading…

Próximas Passagens (próximas 24 horas)

TLE

AtualizadoSource: Space-Track

Época: Sep 14, 2026, 02:24 UTC

1 09954U 76126AU  26257.10052066  .00000354  00000-0  18255-3 0  9997
2 09954  65.6986 293.2406 0896330   3.5863 357.1039 13.04224114638680

Acompanhe COSMOS 886 DEB * em tempo real com AllMySat

Download on the App Store